Вернуться в каталог

STARLINK-6111

АктивенСвязьVLEO
NORAD 57102·PAYLOAD·🇺🇸 United States

Запущен Jun 23, 2023 с Cape Canaveral Space Force Station

Loading…

Ближайшие Пролёты (ближайшие 24 часа)

TLE

СвежийSource: CelesTrak SupGP

Эпоха: Sep 15, 2026, 02:33 UTC

1 57102C 23090B   26258.10673611  .00010333  00000+0  37429-3 0  2582
2 57102  43.0010 292.0026 0000867 265.7385 299.1339 15.27571294    13

Отслеживайте STARLINK-6111 в реальном времени с AllMySat

Download on the App Store